Find Starlink 11583

NORAD ID: 62991 Int'l Des: 2025-031 Owner: SPXS Country: US Constellation: starlink operational
LEOCIRCULAR

リアルタイム位置

3D地球を読み込み中...

Starlink 11583について

説明を読み込み中...

次回通過

Passes for default location (London). Set your location on the main map for personalized predictions.

高度履歴

Loading altitude history...

軌道要素

1 62991U 25031L 26126.38559000 .00208972 00000-0 15913-2 0 9994
2 62991 42.9997 13.9389 0001313 316.4133 43.6631 15.70842933 71824
Epoch: May 6, 2026 • Age: 14 hours

現在のステータス

高度 354.5 km
速度 7.70 km/s
衛星直下点 14.76°N, 175.78°E
打ち上げ日 Feb 11, 2025
運用期間 1.2 years
タイプ internet

技術仕様

分類 Payload
質量 960.00 kg
乾燥質量 910.00 kg
総質量 960.00 kg
長さ 0.30 m
直径 4.10 m
スパン 29.00 m
形状 Box + pan
製造者 SPXS
バスタイプ Starlink V2MD
フェーズステータス In Orbit
所有者/国 SPXS/US

Most Searched